Location: Rounton
(54.4000°N, 1.3500°W)
Time: 14:45:58
(UTC+00:00)

Altair - Pass Details

Date: 05 December 2021
Orbit: 1501 x 1683 km, 47.2° (Epoch: 19 January)

Event Time Altitude Azimuth Distance (km) Brightness Sun altitude
Rises 18:59:55 0° 268° (W) 4,717 11.4 -27.3°
Reaches altitude 10° 19:03:05 10° 264° (W) 3,713 10.5 -27.7°
Maximum altitude 19:12:00 53° 192° (SSW) 1,799 7.8 -29.0°
Enters shadow 19:14:50 41° 145° (SE) 2,071 7.8 -29.4°
Drops below altitude 10° 19:20:46 10° 119° (ESE) 3,650 - -30.3°
Sets 19:23:51 0° 115° (ESE) 4,633 - -30.8°
